Time,TemperatureF,DewpointF,PressureIn,WindDirection,WindDirectionDegrees,WindSpeedMPH,WindSpeedGustMPH,Humidity,HourlyPrecipIn,Conditions,Clouds,dailyrainin,SoftwareType,DateUTC
2013-07-10 00:15:00,81.6,53.0,29.70,East,101,4.0,8.0,37,0.00,,,0.00,weatherlink.com 1.10,2013-07-10 06:15:00,
2013-07-10 00:30:00,81.8,53.0,29.70,ESE,103,2.0,11.0,37,0.00,,,0.00,weatherlink.com 1.10,2013-07-10 06:30:00,
2013-07-10 00:45:00,81.4,53.0,29.71,SE,132,7.0,9.0,37,0.00,,,0.00,weatherlink.com 1.10,2013-07-10 06:45:00,
2013-07-10 01:00:00,81.0,53.0,29.70,East,98,2.0,7.0,38,0.00,,,0.00,weatherlink.com 1.10,2013-07-10 07:00:00,
2013-07-10 01:15:00,80.8,53.0,29.71,ESE,114,3.0,8.0,38,0.00,,,0.00,weatherlink.com 1.10,2013-07-10 07:15:00,
2013-07-10 01:30:00,80.3,54.0,29.71,SE,128,2.0,6.0,40,0.00,,,0.00,weatherlink.com 1.10,2013-07-10 07:30:00,
2013-07-10 01:45:00,79.7,53.0,29.70,SE,132,1.0,5.0,40,0.00,,,0.00,weatherlink.com 1.10,2013-07-10 07:45:00,
2013-07-10 02:00:00,79.4,54.0,29.70,ESE,110,0.0,3.0,41,0.00,,,0.00,weatherlink.com 1.10,2013-07-10 08:00:00,
2013-07-10 02:15:00,79.0,53.0,29.70,SE,129,0.0,2.0,41,0.00,,,0.00,weatherlink.com 1.10,2013-07-10 08:15:00,
2013-07-10 02:30:00,78.6,55.0,29.70,ESE,104,0.0,3.0,44,0.00,,,0.00,weatherlink.com 1.10,2013-07-10 08:30:00,
2013-07-10 02:45:00,78.6,54.0,29.70,ESE,119,0.0,2.0,43,0.00,,,0.00,weatherlink.com 1.10,2013-07-10 08:45:00,
2013-07-10 03:00:00,78.5,53.0,29.70,ESE,121,1.0,4.0,42,0.00,,,0.00,weatherlink.com 1.10,2013-07-10 09:00:00,
2013-07-10 03:15:00,78.2,54.0,29.69,ESE,109,0.0,2.0,43,0.00,,,0.00,weatherlink.com 1.10,2013-07-10 09:15:00,
2013-07-10 03:30:00,76.5,55.0,29.70,ENE,68,0.0,1.0,47,0.00,,,0.00,weatherlink.com 1.10,2013-07-10 09:30:00,
2013-07-10 03:45:00,75.6,55.0,29.70,ENE,68,0.0,1.0,49,0.00,,,0.00,weatherlink.com 1.10,2013-07-10 09:45:00,
2013-07-10 04:00:00,75.3,56.0,29.70,NE,49,0.0,4.0,51,0.00,,,0.00,weatherlink.com 1.10,2013-07-10 10:00:00,
2013-07-10 04:15:00,74.6,57.0,29.70,NNW,327,1.0,2.0,54,0.00,,,0.00,weatherlink.com 1.10,2013-07-10 10:15:00,
2013-07-10 04:30:00,74.1,57.0,29.70,North,11,0.0,1.0,56,0.00,,,0.00,weatherlink.com 1.10,2013-07-10 10:30:00,
2013-07-10 04:45:00,73.4,58.0,29.70,NW,321,0.0,2.0,58,0.00,,,0.00,weatherlink.com 1.10,2013-07-10 10:45:00,
2013-07-10 05:00:00,73.6,58.0,29.70,ESE,120,0.0,2.0,58,0.00,,,0.00,weatherlink.com 1.10,2013-07-10 11:00:00,
2013-07-10 05:15:00,72.9,58.0,29.71,ESE,115,0.0,2.0,60,0.00,,,0.00,weatherlink.com 1.10,2013-07-10 11:15:00,
2013-07-10 05:30:00,71.6,57.0,29.71,ESE,115,0.0,1.0,61,0.00,,,0.00,weatherlink.com 1.10,2013-07-10 11:30:00,
2013-07-10 05:45:00,71.7,56.0,29.71,NW,311,0.0,3.0,59,0.00,,,0.00,weatherlink.com 1.10,2013-07-10 11:45:00,
2013-07-10 06:00:00,71.7,56.0,29.71,SSW,205,0.0,1.0,59,0.00,,,0.00,weatherlink.com 1.10,2013-07-10 12:00:00,
2013-07-10 06:15:00,71.4,57.0,29.71,WNW,302,0.0,1.0,61,0.00,,,0.00,weatherlink.com 1.10,2013-07-10 12:15:00,
2013-07-10 06:30:00,71.1,57.0,29.72,North,351,0.0,3.0,61,0.00,,,0.00,weatherlink.com 1.10,2013-07-10 12:30:00,
2013-07-10 06:45:00,71.0,57.0,29.72,NNW,338,0.0,2.0,61,0.00,,,0.00,weatherlink.com 1.10,2013-07-10 12:45:00,
2013-07-10 07:00:00,71.5,58.0,29.72,NW,326,1.0,3.0,62,0.00,,,0.00,weatherlink.com 1.10,2013-07-10 13:00:00,
2013-07-10 07:15:00,72.6,58.0,29.73,NW,325,0.0,1.0,60,0.00,,,0.00,weatherlink.com 1.10,2013-07-10 13:15:00,
2013-07-10 07:30:00,73.1,57.0,29.73,North,355,0.0,3.0,58,0.00,,,0.00,weatherlink.com 1.10,2013-07-10 13:30:00,
2013-07-10 07:45:00,74.4,57.0,29.73,WNW,293,1.0,3.0,55,0.00,,,0.00,weatherlink.com 1.10,2013-07-10 13:45:00,
2013-07-10 08:00:00,76.0,58.0,29.73,North,349,0.0,1.0,54,0.00,,,0.00,weatherlink.com 1.10,2013-07-10 14:00:00,
2013-07-10 08:15:00,76.9,57.0,29.74,NNW,327,1.0,3.0,51,0.00,,,0.00,weatherlink.com 1.10,2013-07-10 14:15:00,
2013-07-10 08:30:00,78.1,57.0,29.74,NNE,16,2.0,4.0,49,0.00,,,0.00,weatherlink.com 1.10,2013-07-10 14:30:00,
2013-07-10 08:46:00,79.5,57.0,29.74,NNW,338,0.0,3.0,47,0.00,,,0.00,weatherlink.com 1.10,2013-07-10 14:46:00,
2013-07-10 09:01:00,80.5,57.0,29.74,WNW,287,2.0,2.0,45,0.00,,,0.00,weatherlink.com 1.10,2013-07-10 15:01:00,
2013-07-10 09:16:00,82.0,57.0,29.74,NNE,13,0.0,3.0,42,0.00,,,0.00,weatherlink.com 1.10,2013-07-10 15:16:00,
2013-07-10 09:31:00,84.9,57.0,29.73,SW,226,0.0,2.0,39,0.00,,,0.00,weatherlink.com 1.10,2013-07-10 15:31:00,
2013-07-10 09:46:00,86.1,57.0,29.73,SSE,160,2.0,4.0,37,0.00,,,0.00,weatherlink.com 1.10,2013-07-10 15:46:00,
2013-07-10 10:01:00,86.7,57.0,29.73,SSE,155,1.0,4.0,36,0.00,,,0.00,weatherlink.com 1.10,2013-07-10 16:01:00,
2013-07-10 10:16:00,87.5,57.0,29.73,SW,229,3.0,4.0,36,0.00,,,0.00,weatherlink.com 1.10,2013-07-10 16:16:00,
2013-07-10 10:31:00,87.2,57.0,29.73,West,276,1.0,4.0,36,0.00,,,0.00,weatherlink.com 1.10,2013-07-10 16:31:00,
2013-07-10 10:46:00,87.6,57.0,29.73,WSW,248,1.0,3.0,35,0.00,,,0.00,weatherlink.com 1.10,2013-07-10 16:46:00,
2013-07-10 11:01:00,88.3,57.0,29.72,West,269,0.0,4.0,35,0.00,,,0.00,weatherlink.com 1.10,2013-07-10 17:01:00,
2013-07-10 11:16:00,90.0,57.0,29.72,SW,235,2.0,5.0,33,0.00,,,0.00,weatherlink.com 1.10,2013-07-10 17:16:00,
2013-07-10 11:31:00,90.8,57.0,29.71,West,270,1.0,5.0,32,0.00,,,0.00,weatherlink.com 1.10,2013-07-10 17:31:00,
2013-07-10 11:46:00,92.2,57.0,29.70,SW,235,1.0,3.0,31,0.00,,,0.00,weatherlink.com 1.10,2013-07-10 17:46:00,
2013-07-10 12:01:00,93.2,57.0,29.69,West,269,2.0,3.0,30,0.00,,,0.00,weatherlink.com 1.10,2013-07-10 18:01:00,
2013-07-10 12:16:00,93.9,56.0,29.69,NW,308,0.0,4.0,28,0.00,,,0.00,weatherlink.com 1.10,2013-07-10 18:16:00,
2013-07-10 12:31:00,94.8,57.0,29.68,West,266,1.0,3.0,28,0.00,,,0.00,weatherlink.com 1.10,2013-07-10 18:31:00,
2013-07-10 12:46:00,95.2,56.0,29.67,SSE,148,3.0,7.0,27,0.00,,,0.00,weatherlink.com 1.10,2013-07-10 18:46:00,
2013-07-10 13:01:00,94.3,56.0,29.66,NW,308,1.0,6.0,27,0.00,,,0.00,weatherlink.com 1.10,2013-07-10 19:01:00,
2013-07-10 13:16:00,95.2,55.0,29.66,SW,221,3.0,7.0,26,0.00,,,0.00,weatherlink.com 1.10,2013-07-10 19:16:00,
2013-07-10 13:32:00,95.3,55.0,29.65,SE,139,4.0,4.0,26,0.00,,,0.00,weatherlink.com 1.10,2013-07-10 19:32:00,
2013-07-10 13:47:00,96.0,54.0,29.64,SE,142,4.0,6.0,24,0.00,,,0.00,weatherlink.com 1.10,2013-07-10 19:47:00,
2013-07-10 14:01:00,97.3,53.0,29.64,SE,131,1.0,5.0,22,0.00,,,0.00,weatherlink.com 1.10,2013-07-10 20:01:00,
2013-07-10 14:16:00,95.4,52.0,29.64,WSW,242,2.0,13.0,23,0.00,,,0.00,weatherlink.com 1.10,2013-07-10 20:16:00,
2013-07-10 14:32:00,96.8,51.0,29.63,ESE,121,2.0,10.0,21,0.00,,,0.00,weatherlink.com 1.10,2013-07-10 20:32:00,
2013-07-10 14:46:00,96.8,51.0,29.62,SE,142,6.0,7.0,21,0.00,,,0.00,weatherlink.com 1.10,2013-07-10 20:46:00,
2013-07-10 15:01:00,97.5,50.0,29.62,SW,229,2.0,9.0,20,0.00,,,0.00,weatherlink.com 1.10,2013-07-10 21:01:00,
2013-07-10 15:16:00,97.1,51.0,29.61,SE,143,3.0,6.0,21,0.00,,,0.00,weatherlink.com 1.10,2013-07-10 21:16:00,
2013-07-10 15:31:00,97.7,50.0,29.60,ESE,115,1.0,6.0,20,0.00,,,0.00,weatherlink.com 1.10,2013-07-10 21:31:00,
2013-07-10 15:47:00,97.0,51.0,29.59,SE,143,4.0,8.0,21,0.00,,,0.00,weatherlink.com 1.10,2013-07-10 21:47:00,
2013-07-10 16:02:00,96.4,52.0,29.58,WNW,288,4.0,6.0,22,0.00,,,0.00,weatherlink.com 1.10,2013-07-10 22:02:00,
2013-07-10 16:17:00,97.9,53.0,29.58,SE,146,5.0,6.0,22,0.00,,,0.00,weatherlink.com 1.10,2013-07-10 22:17:00,
2013-07-10 16:32:00,98.7,51.0,29.57,SSW,200,1.0,6.0,20,0.00,,,0.00,weatherlink.com 1.10,2013-07-10 22:32:00,
2013-07-10 16:47:00,98.4,53.0,29.56,SSW,213,3.0,5.0,22,0.00,,,0.00,weatherlink.com 1.10,2013-07-10 22:47:00,
2013-07-10 17:02:00,98.3,55.0,29.55,SW,215,3.0,4.0,23,0.00,,,0.00,weatherlink.com 1.10,2013-07-10 23:02:00,
2013-07-10 17:17:00,96.4,55.0,29.55,SW,229,2.0,8.0,25,0.00,,,0.00,weatherlink.com 1.10,2013-07-10 23:17:00,
2013-07-10 17:32:00,95.0,55.0,29.55,South,172,4.0,9.0,26,0.00,,,0.00,weatherlink.com 1.10,2013-07-10 23:32:00,
2013-07-10 17:47:00,94.9,53.0,29.55,SE,146,2.0,6.0,24,0.00,,,0.00,weatherlink.com 1.10,2013-07-10 23:47:00,
2013-07-10 18:02:00,94.1,52.0,29.55,SW,215,3.0,8.0,24,0.00,,,0.00,weatherlink.com 1.10,2013-07-11 00:02:00,
2013-07-10 18:17:00,93.8,53.0,29.55,East,101,2.0,5.0,25,0.00,,,0.00,weatherlink.com 1.10,2013-07-11 00:17:00,
2013-07-10 18:32:00,93.7,53.0,29.55,West,267,1.0,4.0,25,0.00,,,0.00,weatherlink.com 1.10,2013-07-11 00:32:00,
2013-07-10 18:47:00,93.1,51.0,29.55,SSW,208,1.0,5.0,24,0.00,,,0.00,weatherlink.com 1.10,2013-07-11 00:47:00,
2013-07-10 19:02:00,92.5,51.0,29.55,ESE,117,0.0,3.0,24,0.00,,,0.00,weatherlink.com 1.10,2013-07-11 01:02:00,
2013-07-10 19:17:00,92.2,51.0,29.55,SW,226,1.0,5.0,24,0.00,,,0.00,weatherlink.com 1.10,2013-07-11 01:17:00,
2013-07-10 19:32:00,91.5,50.0,29.56,SE,136,2.0,5.0,24,0.00,,,0.00,weatherlink.com 1.10,2013-07-11 01:32:00,
2013-07-10 19:47:00,91.2,51.0,29.56,SE,139,2.0,4.0,25,0.00,,,0.00,weatherlink.com 1.10,2013-07-11 01:47:00,
2013-07-10 20:02:00,90.7,50.0,29.56,SSW,197,2.0,3.0,25,0.00,,,0.00,weatherlink.com 1.10,2013-07-11 02:02:00,
2013-07-10 20:17:00,88.8,54.0,29.57,SSE,153,2.0,9.0,30,0.00,,,0.00,weatherlink.com 1.10,2013-07-11 02:17:00,
2013-07-10 20:32:00,87.3,52.0,29.59,NW,313,4.0,10.0,30,0.00,,,0.00,weatherlink.com 1.10,2013-07-11 02:32:00,
2013-07-10 20:47:00,82.9,55.0,29.60,NNE,26,9.0,15.0,38,0.00,,,0.00,weatherlink.com 1.10,2013-07-11 02:47:00,
2013-07-10 21:02:00,81.4,56.0,29.60,WSW,245,4.0,9.0,42,0.00,,,0.00,weatherlink.com 1.10,2013-07-11 03:02:00,
2013-07-10 21:17:00,80.8,56.0,29.61,NNW,341,2.0,7.0,43,0.00,,,0.00,weatherlink.com 1.10,2013-07-11 03:17:00,
2013-07-10 21:32:00,79.7,56.0,29.62,NNW,333,2.0,13.0,45,0.00,,,0.00,weatherlink.com 1.10,2013-07-11 03:32:00,
2013-07-10 21:47:00,79.0,56.0,29.63,West,276,2.0,17.0,45,0.00,,,0.00,weatherlink.com 1.10,2013-07-11 03:47:00,
2013-07-10 22:02:00,79.2,55.0,29.63,NE,34,6.0,13.0,44,0.00,,,0.00,weatherlink.com 1.10,2013-07-11 04:02:00,
2013-07-10 22:17:00,79.0,55.0,29.65,North,7,5.0,14.0,44,0.00,,,0.00,weatherlink.com 1.10,2013-07-11 04:17:00,
2013-07-10 22:32:00,78.8,55.0,29.65,NNW,329,2.0,14.0,44,0.00,,,0.00,weatherlink.com 1.10,2013-07-11 04:32:00,
2013-07-10 22:47:00,79.2,54.0,29.65,NE,46,3.0,13.0,42,0.00,,,0.00,weatherlink.com 1.10,2013-07-11 04:47:00,
2013-07-10 23:02:00,79.2,55.0,29.65,WNW,302,5.0,14.0,43,0.00,,,0.00,weatherlink.com 1.10,2013-07-11 05:02:00,
2013-07-10 23:17:00,78.5,55.0,29.65,North,360,5.0,10.0,45,0.00,,,0.00,weatherlink.com 1.10,2013-07-11 05:17:00,
2013-07-10 23:32:00,78.5,55.0,29.65,North,9,2.0,11.0,44,0.00,,,0.00,weatherlink.com 1.10,2013-07-11 05:32:00,
2013-07-10 23:47:00,78.6,54.0,29.65,West,259,3.0,5.0,43,0.00,,,0.00,weatherlink.com 1.10,2013-07-11 05:47:00,